Time,TemperatureF,DewpointF,PressureIn,WindDirection,WindDirectionDegrees,WindSpeedMPH,WindSpeedGustMPH,Humidity,HourlyPrecipIn,Conditions,Clouds,dailyrainin,SoftwareType,DateUTC
2013-06-30 00:01:00,69.1,62.0,29.79,ESE,105,0.0,-999.0,77,-99.99,,,0.00,weatherlink.com 1.10,2013-06-30 07:01:00,
2013-06-30 00:16:00,68.4,61.0,29.79,ESE,105,0.0,-999.0,77,-99.99,,,0.00,weatherlink.com 1.10,2013-06-30 07:16:00,
2013-06-30 00:33:00,67.8,60.0,29.80,ESE,105,0.0,-999.0,77,-99.99,,,0.00,weatherlink.com 1.10,2013-06-30 07:33:00,
2013-06-30 01:18:00,66.1,60.0,29.79,ESE,105,0.0,-999.0,80,-99.99,,,0.00,weatherlink.com 1.10,2013-06-30 08:18:00,
2013-06-30 01:32:00,65.6,60.0,29.78,ESE,105,0.0,-999.0,81,-99.99,,,0.00,weatherlink.com 1.10,2013-06-30 08:32:00,
2013-06-30 01:47:00,65.2,60.0,29.78,ESE,105,0.0,-999.0,82,-99.99,,,0.00,weatherlink.com 1.10,2013-06-30 08:47:00,
2013-06-30 02:16:00,64.3,59.0,29.78,ESE,105,0.0,-999.0,82,-99.99,,,0.00,weatherlink.com 1.10,2013-06-30 09:16:00,
2013-06-30 03:35:00,62.6,58.0,29.77,ESE,105,0.0,-999.0,84,-99.99,,,0.00,weatherlink.com 1.10,2013-06-30 10:35:00,
2013-06-30 03:49:00,62.4,58.0,29.77,ESE,105,0.0,-999.0,85,-99.99,,,0.00,weatherlink.com 1.10,2013-06-30 10:49:00,
2013-06-30 04:03:00,62.3,58.0,29.77,ESE,105,0.0,-999.0,85,-99.99,,,0.00,weatherlink.com 1.10,2013-06-30 11:03:00,
2013-06-30 04:19:00,62.0,58.0,29.77,ESE,105,0.0,-999.0,86,-99.99,,,0.00,weatherlink.com 1.10,2013-06-30 11:19:00,
2013-06-30 04:34:00,61.6,57.0,29.77,ESE,105,0.0,-999.0,86,-99.99,,,0.00,weatherlink.com 1.10,2013-06-30 11:34:00,
2013-06-30 04:50:00,61.5,58.0,29.77,ESE,105,0.0,-999.0,87,-99.99,,,0.00,weatherlink.com 1.10,2013-06-30 11:50:00,
2013-06-30 05:05:00,61.3,57.0,29.77,ESE,105,0.0,-999.0,87,-99.99,,,0.00,weatherlink.com 1.10,2013-06-30 12:05:00,
2013-06-30 05:19:00,61.0,57.0,29.77,ESE,105,0.0,-999.0,87,-99.99,,,0.00,weatherlink.com 1.10,2013-06-30 12:19:00,
2013-06-30 05:36:00,60.9,57.0,29.78,ESE,105,0.0,-999.0,88,-99.99,,,0.00,weatherlink.com 1.10,2013-06-30 12:36:00,
2013-06-30 05:56:00,60.5,57.0,29.79,ESE,105,0.0,-999.0,88,-99.99,,,0.00,weatherlink.com 1.10,2013-06-30 12:56:00,
2013-06-30 06:03:00,60.5,57.0,29.79,ESE,105,0.0,-999.0,88,-99.99,,,0.00,weatherlink.com 1.10,2013-06-30 13:03:00,
2013-06-30 06:20:00,60.4,57.0,29.79,ESE,105,0.0,-999.0,89,-99.99,,,0.00,weatherlink.com 1.10,2013-06-30 13:20:00,
2013-06-30 06:38:00,60.4,58.0,29.79,ESE,105,0.0,-999.0,90,-99.99,,,0.00,weatherlink.com 1.10,2013-06-30 13:38:00,
2013-06-30 06:53:00,60.9,58.0,29.79,ESE,105,0.0,-999.0,90,-99.99,,,0.00,weatherlink.com 1.10,2013-06-30 13:53:00,
2013-06-30 07:04:00,61.8,59.0,29.79,ESE,105,0.0,-999.0,91,-99.99,,,0.00,weatherlink.com 1.10,2013-06-30 14:04:00,
2013-06-30 07:20:00,63.9,61.0,29.79,ESE,105,0.0,-999.0,89,-99.99,,,0.00,weatherlink.com 1.10,2013-06-30 14:20:00,
2013-06-30 07:34:00,65.6,61.0,29.79,ESE,105,0.0,-999.0,84,-99.99,,,0.00,weatherlink.com 1.10,2013-06-30 14:34:00,
2013-06-30 07:49:00,67.6,61.0,29.80,ESE,106,0.0,-999.0,79,-99.99,,,0.00,weatherlink.com 1.10,2013-06-30 14:49:00,
2013-06-30 08:04:00,69.1,61.0,29.80,ESE,106,0.0,-999.0,75,-99.99,,,0.00,weatherlink.com 1.10,2013-06-30 15:04:00,
2013-06-30 08:19:00,70.3,61.0,29.81,ESE,108,0.0,-999.0,73,-99.99,,,0.00,weatherlink.com 1.10,2013-06-30 15:19:00,
2013-06-30 08:38:00,71.6,62.0,29.81,ESE,111,0.0,-999.0,71,-99.99,,,0.00,weatherlink.com 1.10,2013-06-30 15:38:00,
2013-06-30 09:22:00,75.1,62.0,29.80,ESE,107,0.0,-999.0,63,-99.99,,,0.00,weatherlink.com 1.10,2013-06-30 16:22:00,
2013-06-30 09:56:00,78.6,62.0,29.79,ESE,108,0.0,-999.0,57,-99.99,,,0.00,weatherlink.com 1.10,2013-06-30 16:56:00,
2013-06-30 10:08:00,80.1,62.0,29.79,ESE,108,3.0,-999.0,55,-99.99,,,0.00,weatherlink.com 1.10,2013-06-30 17:08:00,
2013-06-30 10:20:00,81.2,63.0,29.78,ESE,108,0.0,-999.0,54,-99.99,,,0.00,weatherlink.com 1.10,2013-06-30 17:20:00,
2013-06-30 10:36:00,82.6,64.0,29.78,SSE,150,0.0,-999.0,53,-99.99,,,0.00,weatherlink.com 1.10,2013-06-30 17:36:00,
2013-06-30 11:05:00,84.5,62.0,29.78,SE,124,0.0,-999.0,47,-99.99,,,0.00,weatherlink.com 1.10,2013-06-30 18:05:00,
2013-06-30 11:22:00,85.7,64.0,29.78,SE,144,5.0,-999.0,49,-99.99,,,0.00,weatherlink.com 1.10,2013-06-30 18:22:00,
2013-06-30 11:36:00,86.7,63.0,29.78,SE,131,0.0,-999.0,45,-99.99,,,0.00,weatherlink.com 1.10,2013-06-30 18:36:00,
2013-06-30 11:50:00,87.6,64.0,29.77,South,181,3.0,-999.0,45,-99.99,,,0.00,weatherlink.com 1.10,2013-06-30 18:50:00,
2013-06-30 12:05:00,88.4,63.0,29.77,SSE,159,0.0,-999.0,43,-99.99,,,0.00,weatherlink.com 1.10,2013-06-30 19:05:00,
2013-06-30 12:36:00,91.0,65.0,29.76,SE,146,0.0,-999.0,42,-99.99,,,0.00,weatherlink.com 1.10,2013-06-30 19:36:00,
2013-06-30 13:06:00,92.7,66.0,29.75,ESE,113,3.0,-999.0,42,-99.99,,,0.00,weatherlink.com 1.10,2013-06-30 20:06:00,
2013-06-30 14:06:00,93.8,66.0,29.74,SE,143,0.0,-999.0,40,-99.99,,,0.00,weatherlink.com 1.10,2013-06-30 21:06:00,
2013-06-30 14:21:00,94.0,67.0,29.73,SE,136,1.0,-999.0,41,-99.99,,,0.00,weatherlink.com 1.10,2013-06-30 21:21:00,
2013-06-30 14:36:00,94.9,65.0,29.73,SSE,148,3.0,-999.0,37,-99.99,,,0.00,weatherlink.com 1.10,2013-06-30 21:36:00,
2013-06-30 14:51:00,95.6,67.0,29.73,ESE,113,4.0,-999.0,39,-99.99,,,0.00,weatherlink.com 1.10,2013-06-30 21:51:00,
2013-06-30 15:07:00,96.1,65.0,29.73,SE,138,1.0,-999.0,36,-99.99,,,0.00,weatherlink.com 1.10,2013-06-30 22:07:00,
2013-06-30 15:24:00,96.1,66.0,29.72,ESE,116,4.0,-999.0,37,-99.99,,,0.00,weatherlink.com 1.10,2013-06-30 22:24:00,
2013-06-30 15:39:00,96.8,66.0,29.71,SE,141,0.0,-999.0,36,-99.99,,,0.00,weatherlink.com 1.10,2013-06-30 22:39:00,
2013-06-30 15:52:00,97.3,65.0,29.71,SE,142,0.0,-999.0,34,-99.99,,,0.00,weatherlink.com 1.10,2013-06-30 22:52:00,
2013-06-30 16:22:00,97.5,66.0,29.70,SE,133,5.0,-999.0,35,-99.99,,,0.00,weatherlink.com 1.10,2013-06-30 23:22:00,
2013-06-30 16:40:00,97.1,65.0,29.70,SE,129,6.0,-999.0,35,-99.99,,,0.00,weatherlink.com 1.10,2013-06-30 23:40:00,
2013-06-30 17:10:00,96.8,63.0,29.70,SE,128,0.0,-999.0,33,-99.99,,,0.00,weatherlink.com 1.10,2013-07-01 00:10:00,
2013-06-30 17:37:00,96.1,65.0,29.69,SE,126,3.0,-999.0,36,-99.99,,,0.00,weatherlink.com 1.10,2013-07-01 00:37:00,
2013-06-30 17:58:00,94.3,67.0,29.69,South,179,1.0,-999.0,40,-99.99,,,0.00,weatherlink.com 1.10,2013-07-01 00:58:00,
2013-06-30 18:22:00,92.1,66.0,29.68,SE,137,2.0,-999.0,42,-99.99,,,0.00,weatherlink.com 1.10,2013-07-01 01:22:00,
2013-06-30 18:39:00,90.7,65.0,29.68,East,89,0.0,-999.0,42,-99.99,,,0.00,weatherlink.com 1.10,2013-07-01 01:39:00,
2013-06-30 19:23:00,86.1,64.0,29.70,ESE,121,1.0,-999.0,48,-99.99,,,0.00,weatherlink.com 1.10,2013-07-01 02:23:00,
2013-06-30 20:23:00,81.8,63.0,29.71,SE,130,0.0,-999.0,53,-99.99,,,0.00,weatherlink.com 1.10,2013-07-01 03:23:00,
2013-06-30 20:40:00,80.7,62.0,29.71,East,96,0.0,-999.0,54,-99.99,,,0.00,weatherlink.com 1.10,2013-07-01 03:40:00,
2013-06-30 20:54:00,79.8,62.0,29.71,East,96,0.0,-999.0,55,-99.99,,,0.00,weatherlink.com 1.10,2013-07-01 03:54:00,
2013-06-30 21:24:00,77.2,62.0,29.72,East,96,0.0,-999.0,59,-99.99,,,0.00,weatherlink.com 1.10,2013-07-01 04:24:00,
2013-06-30 21:39:00,76.3,62.0,29.73,East,96,0.0,-999.0,61,-99.99,,,0.00,weatherlink.com 1.10,2013-07-01 04:39:00,
2013-06-30 22:09:00,74.2,62.0,29.74,East,96,0.0,-999.0,65,-99.99,,,0.00,weatherlink.com 1.10,2013-07-01 05:09:00,
2013-06-30 22:55:00,71.5,61.0,29.75,East,96,0.0,-999.0,69,-99.99,,,0.00,weatherlink.com 1.10,2013-07-01 05:55:00,
2013-06-30 23:08:00,70.4,61.0,29.75,East,96,0.0,-999.0,71,-99.99,,,0.00,weatherlink.com 1.10,2013-07-01 06:08:00,
2013-06-30 23:23:00,69.1,61.0,29.75,East,97,0.0,-999.0,74,-99.99,,,0.00,weatherlink.com 1.10,2013-07-01 06:23:00,
2013-06-30 23:39:00,68.3,60.0,29.76,East,97,0.0,-999.0,75,-99.99,,,0.00,weatherlink.com 1.10,2013-07-01 06:39:00,
2013-06-30 23:57:00,67.6,60.0,29.76,East,97,0.0,-999.0,76,-99.99,,,0.00,weatherlink.com 1.10,2013-07-01 06:57:00,